Regional Weather Roundup
Issued by NWS

Home | Current Version | Previous Version | Graphics & Text | Print | Product List | Glossary On
Versions: 1 2 3 4 5 6 7 8 9 10 11 12 13 14 15 16 17 18 19 20 21 22 23 24 25 26 27 28 29 30 31 32 33 34 35 36 37 38 39 40 41 42 43 44 45 46 47 48 49 50
989
ASUS45 KBOI 192310
RWRID

IDAHO REGIONAL WEATHER ROUNDUP
NATIONAL WEATHER SERVICE BOISE ID
500 PM MDT THU APR 19 2018

NOTE: "FAIR" INDICATES FEW OR NO CLOUDS BELOW 12000 FEET
WITH NO SIGNIFICANT WEATHER AND/OR OBSTRUCTIONS TO VISIBILITY

IDZ012-014-200000-
SOUTHWEST IDAHO


CITY           SKY/WX    TMP DP  RH WIND       PRES   REMARKS
BOISE          MOSUNNY   67  27  22 NW18G28   29.88F
CALDWELL       MOSUNNY   69  30  23 W18G26    29.90F
MOUNTAIN HOME  CLOUDY    65  26  23 NW18G24   29.88R
$$

IDZ016-017-200000-
SOUTHCENTRAL IDAHO


CITY           SKY/WX    TMP DP  RH WIND       PRES   REMARKS
BURLEY         PTSUNNY   63  13  14 VRB5      29.81S
JEROME         CLOUDY    57  31  37 W15       29.86F
TWIN FALLS     CLOUDY    58  30  34 W18       29.87R
$$

IDZ019>023-200000-
SOUTHEAST IDAHO


CITY           SKY/WX    TMP DP  RH WIND       PRES   REMARKS
IDAHO FALLS    CLOUDY    62  20  19 N15       29.86F
POCATELLO      PTSUNNY   65  21  18 N15       29.83F
REXBURG        CLOUDY    61  18  18 N7        29.86F
$$

IDZ006-010-011-018-031-032-200000-
CENTRAL IDAHO MOUNTAINS


CITY           SKY/WX    TMP DP  RH WIND       PRES   REMARKS
MCCALL         SUNNY     56  24  29 N15G23    29.97R
HAILEY         PTSUNNY   55  21  26 S5        29.92R
STANLEY          N/A     49  19  30 CALM      29.97R
SALMON         SUNNY     62  22  21 SW7       29.93F
CHALLIS        CLOUDY    62  20  19 N8        29.92S
$$

IDZ002-004-006-007-026-200000-
NORTHERN IDAHO


CITY           SKY/WX    TMP DP  RH WIND       PRES   REMARKS
LEWISTON       SUNNY     65  34  31 NW14      30.09S
LOWELL           N/A     69  39  33 VRB3      30.01R
COEUR D`ALENE  SUNNY     62  32  32 W8        30.09F
MULLAN PASS    SUNNY     48  15  26 N7        30.09S
$$




USA.gov is the U.S. government's official web portal to all federal, state and local government web resources and services.